| time (UTC) | temp F | wind direction | speed knots | gust knots | rain 1hr in | rain 24hr in | rain mn in | humidity % | barometer mb |
| 20260903121600 | 80 | 158 | 1.7 | 6.1 | 0.00 | 0.00 | 0.00 | 96 | 1014.1 |
| 20260903120101 | 79 | 156 | 2.6 | 7.0 | 0.00 | 0.00 | 0.00 | 96 | 1014.0 |
| 20260903114552 | 79 | 145 | 2.6 | 7.0 | 0.00 | 0.00 | 0.00 | 96 | 1014.0 |
| 20260903113130 | 79 | 143 | 1.7 | 4.3 | 0.00 | 0.00 | 0.00 | 96 | 1014.0 |
| 20260903111552 | 79 | 144 | 1.7 | 3.5 | 0.00 | 0.00 | 0.00 | 96 | 1014.0 |
| 20260903110056 | 80 | 144 | 0.9 | 2.6 | 0.00 | 0.00 | 0.00 | 96 | 1014.1 |
| 20260903104601 | 80 | 160 | 0.9 | 2.6 | 0.00 | 0.00 | 0.00 | 96 | 1014.0 |
| 20260903103049 | 80 | 153 | 0.9 | 2.6 | 0.00 | 0.00 | 0.00 | 96 | 1014.0 |
| 20260903101550 | 79 | 167 | 0.0 | 2.6 | 0.00 | 0.00 | 0.00 | 96 | 1013.8 |
| 20260903100048 | 79 | 179 | 0.9 | 3.5 | 0.00 | 0.00 | 0.00 | 96 | 1013.6 |
| 20260903094552 | 79 | 169 | 0.0 | 2.6 | 0.00 | 0.00 | 0.00 | 96 | 1013.6 |
| 20260903093046 | 79 | 175 | 1.7 | 4.3 | 0.00 | 0.00 | 0.00 | 96 | 1013.6 |
| 20260903091550 | 80 | 169 | 0.9 | 4.3 | 0.00 | 0.00 | 0.00 | 96 | 1013.7 |
| 20260903090047 | 80 | 170 | 1.7 | 5.2 | 0.00 | 0.00 | 0.00 | 96 | 1013.6 |
| 20260903084543 | 80 | 163 | 2.6 | 4.3 | 0.00 | 0.00 | 0.00 | 96 | 1013.8 |
| 20260903083042 | 80 | 161 | 1.7 | 4.3 | 0.00 | 0.00 | 0.00 | 96 | 1013.9 |
| 20260903081541 | 80 | 150 | 1.7 | 5.2 | 0.00 | 0.00 | 0.00 | 95 | 1013.8 |
| 20260903080039 | 80 | 134 | 4.3 | 7.8 | 0.00 | 0.00 | 0.00 | 95 | 1013.7 |
| 20260903074541 | 80 | 148 | 3.5 | 7.0 | 0.00 | 0.00 | 0.00 | 95 | 1013.7 |
| 20260903073037 | 80 | 136 | 3.5 | 7.8 | 0.00 | 0.00 | 0.00 | 94 | 1013.7 |
| 20260903071545 | 80 | 147 | 4.3 | 7.8 | 0.00 | 0.00 | 0.00 | 94 | 1013.7 |
| 20260903070034 | 81 | 109 | 3.5 | 6.1 | 0.00 | 0.00 | 0.00 | 94 | 1014.1 |
| 20260903064532 | 81 | 129 | 2.6 | 6.1 | 0.00 | 0.00 | 0.00 | 93 | 1014.1 |
| 20260903063031 | 81 | 139 | 4.3 | 7.8 | 0.00 | 0.00 | 0.00 | 93 | 1014.0 |
| 20260903061528 | 81 | 121 | 3.5 | 6.1 | 0.00 | 0.00 | 0.00 | 92 | 1014.1 |
| 20260903060026 | 81 | 126 | 2.6 | 5.2 | 0.00 | 0.00 | 0.00 | 91 | 1014.4 |
| 20260903054524 | 81 | 88 | 3.5 | 6.1 | 0.00 | 0.00 | 0.00 | 91 | 1014.6 |
| 20260903053023 | 82 | 84 | 2.6 | 5.2 | 0.00 | 0.00 | 0.00 | 90 | 1014.7 |
| 20260903051539 | 82 | 84 | 2.6 | 4.3 | 0.00 | 0.00 | 0.00 | 90 | 1014.8 |
| 20260903050016 | 82 | 82 | 2.6 | 3.5 | 0.00 | 0.00 | 0.00 | 89 | 1014.9 |
| 20260903044519 | 82 | 337 | 0.9 | 2.6 | 0.00 | 0.00 | 0.00 | 89 | 1015.5 |
| 20260903043035 | 82 | 328 | 0.0 | 3.5 | 0.00 | 0.00 | 0.00 | 89 | 1015.4 |
| 20260903041520 | 82 | 45 | 0.0 | 4.3 | 0.00 | 0.00 | 0.00 | 89 | 1015.3 |
| 20260903040017 | 82 | 137 | 0.0 | 7.0 | 0.00 | 0.00 | 0.00 | 88 | 1014.8 |
| 20260903034523 | 82 | 154 | 3.5 | 7.8 | 0.00 | 0.00 | 0.00 | 88 | 1014.2 |
| 20260903033018 | 82 | 155 | 3.5 | 7.0 | 0.00 | 0.00 | 0.00 | 88 | 1014.2 |
| 20260903031515 | 82 | 134 | 4.3 | 10.4 | 0.00 | 0.00 | 0.00 | 88 | 1014.3 |
| 20260903030013 | 83 | 162 | 3.5 | 9.6 | 0.00 | 0.00 | 0.00 | 87 | 1014.0 |
| 20260903024513 | 83 | 147 | 5.2 | 13.0 | 0.00 | 0.00 | 0.00 | 86 | 1013.4 |
| 20260903023012 | 83 | 163 | 6.1 | 13.0 | 0.00 | 0.00 | 0.00 | 84 | 1013.2 |
| 20260903021514 | 84 | 168 | 7.8 | 14.8 | 0.00 | 0.00 | 0.00 | 83 | 1012.9 |
| 20260903020013 | 84 | 171 | 7.0 | 12.2 | 0.00 | 0.00 | 0.00 | 82 | 1012.7 |
| 20260903014517 | 85 | 161 | 6.1 | 10.4 | 0.00 | 0.00 | 0.00 | 79 | 1012.6 |
| 20260903013010 | 86 | 165 | 7.8 | 14.8 | 0.00 | 0.00 | 0.00 | 77 | 1012.5 |
| 20260903011514 | 87 | 171 | 5.2 | 13.0 | 0.00 | 0.00 | 0.00 | 73 | 1012.5 |
| 20260903010009 | 87 | 163 | 7.0 | 11.3 | 0.00 | 0.00 | 0.00 | 68 | 1012.2 |
| 20260903004509 | 88 | 177 | 7.8 | 14.8 | 0.00 | 0.00 | 0.00 | 64 | 1012.1 |
| 20260903003011 | 88 | 172 | 7.8 | 17.4 | 0.00 | 0.00 | 0.00 | 63 | 1011.9 |
| 20260903001509 | 89 | 171 | 8.7 | 16.5 | 0.00 | 0.00 | 0.00 | 64 | 1011.7 |
| 20260903000110 | 90 | 176 | 11.3 | 18.2 | 0.00 | 0.00 | 0.00 | 65 | 1011.5 |
| 20260902234505 | 91 | 173 | 9.6 | 13.9 | 0.00 | 0.00 | 0.00 | 66 | 1011.6 |
| 20260902233005 | 91 | 171 | 12.2 | 17.4 | 0.00 | 0.00 | 0.00 | 67 | 1011.5 |
| 20260902231504 | 91 | 180 | 12.2 | 18.2 | 0.00 | 0.00 | 0.00 | 67 | 1011.5 |
| 20260902230002 | 92 | 188 | 9.6 | 17.4 | 0.00 | 0.00 | 0.00 | 67 | 1011.4 |
| 20260902224503 | 94 | 142 | 10.4 | 18.2 | 0.00 | 0.00 | 0.00 | 62 | 1011.2 |
| 20260902223004 | 95 | 161 | 4.3 | 8.7 | 0.00 | 0.00 | 0.00 | 56 | 1011.4 |
| 20260902221605 | 96 | 173 | 6.1 | 10.4 | 0.00 | 0.00 | 0.00 | 56 | 1011.2 |
| 20260902220059 | 95 | 176 | 5.2 | 8.7 | 0.00 | 0.00 | 0.00 | 57 | 1011.2 |
| 20260902214601 | 95 | 153 | 3.5 | 7.0 | 0.00 | 0.00 | 0.00 | 53 | 1011.4 |
| 20260902213102 | 95 | 189 | 4.3 | 8.7 | 0.00 | 0.00 | 0.00 | 55 | 1011.6 |
| 20260902211557 | 96 | 160 | 5.2 | 8.7 | 0.00 | 0.00 | 0.00 | 50 | 1011.6 |
| 20260902210052 | 96 | 196 | 4.3 | 8.7 | 0.00 | 0.00 | 0.00 | 54 | 1011.7 |
| 20260902204550 | 96 | 145 | 6.1 | 10.4 | 0.00 | 0.00 | 0.00 | 54 | 1011.9 |
| 20260902203048 | 96 | 166 | 5.2 | 13.0 | 0.00 | 0.00 | 0.00 | 54 | 1012.0 |
| 20260902201601 | 96 | 217 | 5.2 | 11.3 | 0.00 | 0.00 | 0.00 | 52 | 1012.3 |
| 20260902200057 | 96 | 175 | 7.0 | 13.0 | 0.00 | 0.00 | 0.00 | 53 | 1012.6 |
| 20260902194539 | 96 | 194 | 7.8 | 11.3 | 0.00 | 0.00 | 0.00 | 53 | 1013.0 |
| 20260902193035 | 95 | 180 | 7.0 | 12.2 | 0.00 | 0.00 | 0.00 | 58 | 1013.3 |
| 20260902191536 | 94 | 206 | 5.2 | 8.7 | 0.00 | 0.00 | 0.00 | 60 | 1013.5 |
| 20260902190046 | 94 | 159 | 5.2 | 10.4 | 0.00 | 0.00 | 0.00 | 56 | 1013.6 |
| 20260902184531 | 93 | 240 | 7.0 | 9.6 | 0.00 | 0.00 | 0.00 | 57 | 1014.0 |
| 20260902183026 | 93 | 182 | 6.1 | 11.3 | 0.00 | 0.00 | 0.00 | 60 | 1014.2 |
| 20260902181525 | 92 | 216 | 7.0 | 13.0 | 0.00 | 0.00 | 0.00 | 63 | 1014.4 |
| 20260902180020 | 91 | 215 | 6.1 | 12.2 | 0.00 | 0.00 | 0.00 | 65 | 1014.7 |
| 20260902174518 | 91 | 229 | 7.8 | 12.2 | 0.00 | 0.00 | 0.00 | 65 | 1015.1 |
| 20260902173015 | 90 | 224 | 7.0 | 14.8 | 0.00 | 0.00 | 0.00 | 70 | 1015.3 |
| 20260902171514 | 89 | 221 | 7.8 | 13.9 | 0.00 | 0.00 | 0.00 | 73 | 1015.6 |
| 20260902170011 | 89 | 261 | 6.1 | 13.9 | 0.00 | 0.00 | 0.00 | 72 | 1015.8 |
| 20260902164515 | 89 | 201 | 10.4 | 14.8 | 0.00 | 0.00 | 0.00 | 74 | 1016.1 |
| 20260902163010 | 88 | 196 | 9.6 | 14.8 | 0.00 | 0.00 | 0.00 | 76 | 1016.1 |
| 20260902161508 | 86 | 218 | 9.6 | 16.5 | 0.00 | 0.00 | 0.00 | 79 | 1016.0 |
| 20260902160002 | 86 | 239 | 8.7 | 13.9 | 0.00 | 0.00 | 0.00 | 81 | 1016.2 |
| 20260902154605 | 85 | 223 | 9.6 | 13.0 | 0.00 | 0.00 | 0.00 | 83 | 1016.1 |
| 20260902153059 | 85 | 205 | 7.8 | 14.8 | 0.00 | 0.00 | 0.00 | 84 | 1016.1 |
| 20260902151557 | 83 | 225 | 8.7 | 13.0 | 0.00 | 0.00 | 0.00 | 87 | 1016.0 |
| 20260902150052 | 83 | 223 | 9.6 | 13.0 | 0.00 | 0.00 | 0.00 | 88 | 1016.1 |
| 20260902144549 | 82 | 232 | 7.0 | 12.2 | 0.00 | 0.00 | 0.00 | 90 | 1016.0 |
| 20260902143047 | 81 | 240 | 7.0 | 10.4 | 0.00 | 0.00 | 0.00 | 92 | 1016.1 |
| 20260902141545 | 81 | 257 | 5.2 | 9.6 | 0.00 | 0.00 | 0.00 | 93 | 1016.0 |
| 20260902140047 | 80 | 263 | 3.5 | 7.8 | 0.00 | 0.00 | 0.00 | 95 | 1016.1 |
| 20260902134543 | 79 | 257 | 3.5 | 7.0 | 0.00 | 0.00 | 0.00 | 96 | 1016.1 |
| 20260902133045 | 79 | 235 | 3.5 | 8.7 | 0.00 | 0.00 | 0.00 | 97 | 1015.9 |
| 20260902131539 | 78 | 247 | 5.2 | 7.8 | 0.00 | 0.00 | 0.00 | 97 | 1015.7 |
| 20260902130040 | 78 | 219 | 3.5 | 8.7 | 0.00 | 0.00 | 0.00 | 98 | 1015.3 |
| 20260902124534 | 78 | 231 | 5.2 | 7.8 | 0.00 | 0.00 | 0.00 | 98 | 1014.9 |
| 20260902123035 | 78 | 237 | 5.2 | 8.7 | 0.00 | 0.00 | 0.00 | 98 | 1014.8 |